| time (UTC) | temp F | wind direction | speed knots | gust knots | rain 1hr in | rain 24hr in | rain mn in | humidity % | barometer mb |
| 20260503200003 | 59 | 226 | 5.2 | 9.6 | 0.00 | 0.00 | 0.00 | 46 | 1015.2 |
| 20260503195500 | 58 | 300 | 4.3 | 7.8 | 0.00 | 0.00 | 0.00 | 45 | 1015.1 |
| 20260503194957 | 58 | 218 | 3.5 | 7.8 | 0.00 | 0.00 | 0.00 | 47 | 1015.2 |
| 20260503194455 | 58 | 316 | 3.5 | 8.7 | 0.00 | 0.00 | 0.00 | 48 | 1015.3 |
| 20260503193949 | 58 | 343 | 2.6 | 6.1 | 0.00 | 0.00 | 0.00 | 52 | 1015.4 |
| 20260503193445 | 56 | 337 | 1.7 | 6.1 | 0.00 | 0.00 | 0.00 | 52 | 1015.6 |
| 20260503192940 | 56 | 336 | 1.7 | 6.1 | 0.00 | 0.00 | 0.00 | 51 | 1015.8 |
| 20260503192437 | 57 | 315 | 4.3 | 13.0 | 0.00 | 0.00 | 0.00 | 47 | 1015.9 |
| 20260503191933 | 57 | 258 | 6.1 | 7.8 | 0.00 | 0.00 | 0.00 | 49 | 1015.5 |
| 20260503191431 | 58 | 350 | 2.6 | 12.2 | 0.00 | 0.00 | 0.00 | 47 | 1016.0 |
| 20260503190927 | 57 | 264 | 2.6 | 6.1 | 0.00 | 0.00 | 0.00 | 54 | 1016.0 |
| 20260503190424 | 57 | 221 | 10.4 | 13.9 | 0.00 | 0.00 | 0.00 | 46 | 1015.9 |
| 20260503185921 | 58 | 254 | 5.2 | 7.0 | 0.00 | 0.00 | 0.00 | 49 | 1016.1 |
| 20260503185418 | 57 | 307 | 4.3 | 7.8 | 0.00 | 0.00 | 0.00 | 51 | 1016.2 |
| 20260503184916 | 56 | 279 | 7.0 | 8.7 | 0.00 | 0.00 | 0.00 | 49 | 1016.1 |
| 20260503184414 | 56 | 251 | 6.1 | 9.6 | 0.00 | 0.00 | 0.00 | 50 | 1016.1 |
| 20260503183910 | 57 | 266 | 7.8 | 11.3 | 0.00 | 0.00 | 0.00 | 49 | 1016.0 |
| 20260503183407 | 57 | 313 | 6.1 | 12.2 | 0.00 | 0.00 | 0.00 | 52 | 1016.0 |
| 20260503182904 | 56 | 230 | 5.2 | 8.7 | 0.00 | 0.00 | 0.00 | 50 | 1016.3 |
| 20260503182403 | 57 | 317 | 3.5 | 5.2 | 0.00 | 0.00 | 0.00 | 48 | 1016.3 |
| 20260503181859 | 58 | 356 | 3.5 | 7.8 | 0.00 | 0.00 | 0.00 | 52 | 1016.3 |
| 20260503181356 | 57 | 340 | 2.6 | 8.7 | 0.00 | 0.00 | 0.00 | 54 | 1016.6 |
| 20260503180852 | 57 | 338 | 3.5 | 7.8 | 0.00 | 0.00 | 0.00 | 50 | 1016.3 |
| 20260503180351 | 57 | 313 | 3.5 | 6.1 | 0.00 | 0.00 | 0.00 | 53 | 1016.6 |
| 20260503175847 | 56 | 244 | 7.0 | 7.8 | 0.00 | 0.00 | 0.00 | 52 | 1016.5 |
| 20260503175345 | 55 | 331 | 2.6 | 9.6 | 0.00 | 0.00 | 0.00 | 53 | 1016.8 |
| 20260503174841 | 55 | 333 | 2.6 | 9.6 | 0.00 | 0.00 | 0.00 | 53 | 1016.8 |
| 20260503174340 | 56 | 280 | 5.2 | 8.7 | 0.00 | 0.00 | 0.00 | 48 | 1016.7 |
| 20260503173839 | 55 | 337 | 5.2 | 12.2 | 0.00 | 0.00 | 0.00 | 50 | 1016.6 |
| 20260503173336 | 56 | 254 | 5.2 | 8.7 | 0.00 | 0.00 | 0.00 | 51 | 1016.9 |
| 20260503172833 | 55 | 288 | 4.3 | 7.8 | 0.00 | 0.00 | 0.00 | 49 | 1016.9 |
| 20260503172331 | 55 | 316 | 1.7 | 6.1 | 0.00 | 0.00 | 0.00 | 54 | 1016.9 |
| 20260503171832 | 55 | 323 | 2.6 | 13.0 | 0.00 | 0.00 | 0.00 | 53 | 1016.8 |
| 20260503171329 | 55 | 329 | 2.6 | 7.0 | 0.00 | 0.00 | 0.00 | 49 | 1017.0 |
| 20260503170826 | 55 | 308 | 2.6 | 7.8 | 0.00 | 0.00 | 0.00 | 54 | 1017.0 |
| 20260503170322 | 54 | 278 | 7.0 | 8.7 | 0.00 | 0.00 | 0.00 | 51 | 1017.1 |
| 20260503150715 | 51 | 295 | 6.1 | 8.7 | 0.00 | 0.00 | 0.00 | 55 | 1017.9 |
| 20260503150211 | 50 | 268 | 6.1 | 12.2 | 0.00 | 0.00 | 0.00 | 54 | 1017.9 |
| 20260503140135 | 47 | 250 | 6.1 | 7.8 | 0.00 | 0.00 | 0.00 | 65 | 1018.2 |
| 20260503131105 | 45 | 15 | 3.5 | 7.8 | 0.00 | 0.00 | 0.00 | 71 | 1018.3 |
| 20260503130602 | 45 | 4 | 1.7 | 6.1 | 0.00 | 0.00 | 0.00 | 72 | 1018.4 |
| 20260503110452 | 33 | 347 | 0.9 | 0.9 | 0.00 | 0.00 | 0.00 | 99 | 1017.6 |
| 20260503090338 | 29 | 6 | 0.0 | 0.0 | 0.00 | 0.00 | 0.00 | 99 | 1017.1 |
| 20260503081305 | 29 | 6 | 0.0 | 0.0 | 0.00 | 0.00 | 0.00 | 99 | 1017.0 |
| 20260503080801 | 29 | 6 | 0.0 | 0.0 | 0.00 | 0.00 | 0.00 | 99 | 1017.2 |
| 20260503080259 | 30 | 6 | 0.0 | 0.0 | 0.00 | 0.00 | 0.00 | 99 | 1017.4 |
| 20260503072736 | 30 | 6 | 0.0 | 0.0 | 0.00 | 0.00 | 0.00 | 98 | 1017.1 |
| 20260503072232 | 30 | 6 | 0.0 | 0.0 | 0.00 | 0.00 | 0.00 | 98 | 1017.3 |
| 20260503071728 | 30 | 6 | 0.0 | 0.0 | 0.00 | 0.00 | 0.00 | 98 | 1017.4 |
| 20260503071226 | 30 | 6 | 0.0 | 0.0 | 0.00 | 0.00 | 0.00 | 98 | 1017.3 |
| 20260503070722 | 31 | 6 | 0.0 | 0.0 | 0.00 | 0.00 | 0.00 | 97 | 1017.3 |
| 20260503070220 | 31 | 5 | 0.0 | 0.0 | 0.00 | 0.00 | 0.00 | 97 | 1017.2 |
| 20260503060145 | 34 | 359 | 0.0 | 0.0 | 0.00 | 0.00 | 0.00 | 97 | 1017.3 |
| 20260503054632 | 35 | 358 | 0.0 | 0.0 | 0.00 | 0.00 | 0.00 | 98 | 1017.5 |
| 20260503054129 | 35 | 358 | 0.0 | 0.0 | 0.00 | 0.00 | 0.00 | 98 | 1017.5 |
| 20260503053627 | 35 | 357 | 0.0 | 0.0 | 0.00 | 0.00 | 0.00 | 97 | 1017.5 |
| 20260503053126 | 35 | 356 | 0.0 | 0.0 | 0.00 | 0.00 | 0.00 | 97 | 1017.5 |
| 20260503052621 | 35 | 350 | 0.9 | 0.9 | 0.00 | 0.00 | 0.00 | 97 | 1017.5 |
| 20260503052118 | 35 | 350 | 0.9 | 0.9 | 0.00 | 0.00 | 0.00 | 97 | 1017.7 |
| 20260503051613 | 35 | 358 | 0.0 | 0.0 | 0.00 | 0.00 | 0.00 | 97 | 1017.6 |
| 20260503051112 | 35 | 359 | 0.0 | 0.0 | 0.00 | 0.00 | 0.00 | 96 | 1017.6 |
| 20260503050608 | 35 | 359 | 0.0 | 0.0 | 0.00 | 0.00 | 0.00 | 96 | 1017.8 |
| 20260503050105 | 35 | 359 | 0.0 | 0.0 | 0.00 | 0.00 | 0.00 | 96 | 1017.8 |
| 20260503045601 | 35 | 359 | 0.0 | 0.0 | 0.00 | 0.00 | 0.00 | 97 | 1017.8 |
| 20260503045059 | 35 | 0 | 0.0 | 0.0 | 0.00 | 0.00 | 0.00 | 97 | 1017.8 |
| 20260503044555 | 35 | 0 | 0.0 | 0.0 | 0.00 | 0.00 | 0.00 | 97 | 1017.7 |
| 20260503044053 | 35 | 0 | 0.0 | 0.0 | 0.00 | 0.00 | 0.00 | 97 | 1017.8 |
| 20260503043549 | 35 | 0 | 0.0 | 0.0 | 0.00 | 0.00 | 0.00 | 97 | 1017.7 |
| 20260503043046 | 35 | 0 | 0.0 | 0.0 | 0.00 | 0.00 | 0.00 | 97 | 1017.6 |
| 20260503042543 | 35 | 0 | 0.0 | 0.0 | 0.00 | 0.00 | 0.00 | 97 | 1017.7 |
| 20260503042039 | 35 | 0 | 0.0 | 0.0 | 0.00 | 0.00 | 0.00 | 97 | 1017.8 |
| 20260503041536 | 35 | 0 | 0.0 | 0.0 | 0.00 | 0.00 | 0.00 | 96 | 1017.6 |
| 20260503041034 | 35 | 0 | 0.0 | 0.0 | 0.00 | 0.00 | 0.00 | 96 | 1017.9 |
| 20260503040531 | 35 | 0 | 0.0 | 0.0 | 0.00 | 0.00 | 0.00 | 96 | 1017.7 |
| 20260503040028 | 35 | 0 | 0.0 | 0.0 | 0.00 | 0.01 | 0.01 | 96 | 1017.8 |
| 20260503035525 | 35 | 358 | 0.0 | 0.0 | 0.00 | 0.01 | 0.01 | 95 | 1017.8 |
| 20260503035022 | 35 | 353 | 0.9 | 0.9 | 0.00 | 0.01 | 0.01 | 95 | 1017.9 |
| 20260503034519 | 36 | 0 | 0.9 | 0.9 | 0.00 | 0.01 | 0.01 | 95 | 1017.9 |
| 20260503034016 | 36 | 0 | 0.0 | 0.0 | 0.00 | 0.01 | 0.01 | 94 | 1017.7 |
| 20260503033514 | 36 | 1 | 0.0 | 0.0 | 0.00 | 0.01 | 0.01 | 94 | 1017.8 |
| 20260503033011 | 36 | 0 | 0.0 | 0.0 | 0.00 | 0.01 | 0.01 | 93 | 1017.9 |
| 20260503032510 | 35 | 2 | 0.0 | 0.0 | 0.00 | 0.01 | 0.01 | 93 | 1017.7 |
| 20260503032008 | 36 | 2 | 0.0 | 0.0 | 0.00 | 0.01 | 0.01 | 93 | 1017.9 |
| 20260503031505 | 36 | 2 | 0.0 | 0.0 | 0.00 | 0.01 | 0.01 | 92 | 1017.8 |
| 20260503031001 | 36 | 2 | 0.0 | 0.0 | 0.00 | 0.01 | 0.01 | 92 | 1017.8 |
| 20260503030458 | 36 | 2 | 0.0 | 0.0 | 0.00 | 0.01 | 0.01 | 92 | 1018.0 |
| 20260503025955 | 35 | 2 | 0.0 | 0.0 | 0.00 | 0.01 | 0.01 | 92 | 1017.9 |
| 20260503025451 | 35 | 2 | 0.0 | 0.0 | 0.00 | 0.01 | 0.01 | 92 | 1017.7 |
| 20260503024949 | 35 | 2 | 0.0 | 0.0 | 0.00 | 0.01 | 0.01 | 91 | 1018.0 |
| 20260503024445 | 35 | 2 | 0.0 | 0.0 | 0.00 | 0.01 | 0.01 | 91 | 1018.0 |
| 20260503023943 | 36 | 2 | 0.0 | 0.0 | 0.00 | 0.01 | 0.01 | 91 | 1018.1 |
| 20260503023440 | 36 | 2 | 0.0 | 0.0 | 0.00 | 0.01 | 0.01 | 91 | 1018.1 |
| 20260503022936 | 36 | 2 | 0.0 | 0.0 | 0.00 | 0.01 | 0.01 | 90 | 1018.2 |
| 20260503022431 | 37 | 2 | 0.0 | 0.0 | 0.00 | 0.01 | 0.01 | 90 | 1018.1 |
| 20260503021928 | 37 | 2 | 0.0 | 0.0 | 0.00 | 0.01 | 0.01 | 91 | 1018.2 |
| 20260503021424 | 37 | 1 | 0.0 | 0.0 | 0.00 | 0.01 | 0.01 | 91 | 1018.0 |
| 20260503020922 | 37 | 1 | 0.0 | 0.0 | 0.00 | 0.01 | 0.01 | 92 | 1018.0 |
| 20260503020419 | 37 | 1 | 0.0 | 0.0 | 0.00 | 0.01 | 0.01 | 92 | 1018.0 |
| 20260503015915 | 37 | 1 | 0.0 | 0.0 | 0.00 | 0.01 | 0.01 | 91 | 1017.9 |
| 20260503015413 | 37 | 1 | 0.0 | 0.0 | 0.00 | 0.01 | 0.01 | 92 | 1017.9 |
| 20260503014908 | 37 | 2 | 0.0 | 0.0 | 0.00 | 0.01 | 0.01 | 92 | 1017.8 |
| 20260503014406 | 37 | 2 | 0.0 | 0.0 | 0.00 | 0.01 | 0.01 | 92 | 1018.0 |
| 20260503013904 | 38 | 1 | 0.0 | 0.0 | 0.00 | 0.01 | 0.01 | 91 | 1017.9 |
| 20260503013400 | 38 | 1 | 0.0 | 0.9 | 0.00 | 0.01 | 0.01 | 91 | 1017.9 |
| 20260503012857 | 38 | 2 | 0.0 | 0.0 | 0.00 | 0.01 | 0.01 | 90 | 1017.9 |
| 20260503012355 | 38 | 2 | 0.0 | 0.0 | 0.00 | 0.01 | 0.01 | 90 | 1017.9 |
| 20260503011851 | 37 | 2 | 0.0 | 0.0 | 0.00 | 0.01 | 0.01 | 89 | 1018.0 |
| 20260503011348 | 37 | 3 | 0.0 | 0.0 | 0.00 | 0.01 | 0.01 | 89 | 1017.9 |
| 20260503010845 | 38 | 3 | 0.0 | 0.0 | 0.00 | 0.01 | 0.01 | 89 | 1017.9 |
| 20260503010342 | 37 | 2 | 0.0 | 0.0 | 0.00 | 0.01 | 0.01 | 88 | 1017.9 |
| 20260503005839 | 37 | 4 | 0.0 | 0.0 | 0.00 | 0.01 | 0.01 | 87 | 1018.0 |
| 20260503005337 | 37 | 4 | 0.0 | 0.0 | 0.00 | 0.01 | 0.01 | 87 | 1017.8 |
| 20260503004832 | 38 | 4 | 0.0 | 0.0 | 0.00 | 0.01 | 0.01 | 87 | 1017.6 |
| 20260503004330 | 38 | 4 | 0.0 | 0.0 | 0.00 | 0.01 | 0.01 | 86 | 1017.9 |
| 20260503003828 | 38 | 4 | 0.0 | 0.0 | 0.00 | 0.01 | 0.01 | 85 | 1017.6 |
| 20260503003324 | 38 | 4 | 0.0 | 0.0 | 0.00 | 0.01 | 0.01 | 84 | 1017.5 |
| 20260503002821 | 38 | 4 | 0.0 | 0.0 | 0.00 | 0.01 | 0.01 | 84 | 1017.6 |
| 20260503002318 | 38 | 4 | 0.0 | 0.0 | 0.00 | 0.01 | 0.01 | 83 | 1017.5 |
| 20260503001815 | 38 | 4 | 0.0 | 0.0 | 0.00 | 0.01 | 0.01 | 82 | 1017.6 |
| 20260503001311 | 39 | 4 | 0.0 | 0.0 | 0.00 | 0.01 | 0.01 | 81 | 1017.7 |
| 20260503000808 | 39 | 4 | 0.0 | 0.0 | 0.00 | 0.01 | 0.01 | 80 | 1017.6 |
| 20260503000306 | 39 | 4 | 0.0 | 0.0 | 0.00 | 0.01 | 0.01 | 79 | 1017.7 |
| 20260502235803 | 39 | 4 | 0.0 | 0.0 | 0.00 | 0.01 | 0.01 | 79 | 1017.7 |
| 20260502235300 | 39 | 4 | 0.0 | 0.0 | 0.00 | 0.01 | 0.01 | 79 | 1017.5 |
| 20260502234756 | 39 | 4 | 0.0 | 0.0 | 0.00 | 0.01 | 0.01 | 79 | 1017.5 |
| 20260502234254 | 39 | 4 | 0.0 | 0.0 | 0.00 | 0.01 | 0.01 | 80 | 1017.5 |
| 20260502233749 | 39 | 1 | 0.0 | 0.0 | 0.00 | 0.01 | 0.01 | 79 | 1017.6 |
| 20260502233247 | 40 | 1 | 0.0 | 0.0 | 0.00 | 0.01 | 0.01 | 79 | 1017.5 |
| 20260502232742 | 40 | 4 | 0.0 | 0.9 | 0.00 | 0.01 | 0.01 | 78 | 1017.4 |
| 20260502232239 | 40 | 4 | 0.0 | 0.9 | 0.00 | 0.01 | 0.01 | 77 | 1017.5 |
| 20260502231736 | 40 | 359 | 0.0 | 0.9 | 0.00 | 0.01 | 0.01 | 77 | 1017.6 |
| 20260502231234 | 40 | 9 | 0.0 | 0.0 | 0.00 | 0.01 | 0.01 | 76 | 1017.5 |
| 20260502230733 | 40 | 3 | 0.0 | 0.9 | 0.00 | 0.01 | 0.01 | 74 | 1017.5 |
| 20260502230231 | 41 | 16 | 0.9 | 0.9 | 0.00 | 0.01 | 0.01 | 74 | 1017.4 |
| 20260502225726 | 41 | 13 | 1.7 | 2.6 | 0.00 | 0.01 | 0.01 | 72 | 1017.5 |
| 20260502225224 | 41 | 11 | 0.0 | 1.7 | 0.00 | 0.01 | 0.01 | 73 | 1017.4 |
| 20260502224720 | 41 | 7 | 0.0 | 0.0 | 0.00 | 0.01 | 0.01 | 73 | 1017.5 |
| 20260502224217 | 41 | 1 | 0.0 | 1.7 | 0.00 | 0.01 | 0.01 | 73 | 1017.2 |
| 20260502223714 | 41 | 5 | 0.0 | 0.9 | 0.00 | 0.01 | 0.01 | 75 | 1017.5 |
| 20260502223212 | 41 | 7 | 0.0 | 0.0 | 0.00 | 0.01 | 0.01 | 74 | 1017.4 |
| 20260502222710 | 41 | 1 | 0.0 | 0.9 | 0.00 | 0.01 | 0.01 | 74 | 1017.3 |
| 20260502222206 | 41 | 1 | 0.9 | 0.9 | 0.00 | 0.01 | 0.01 | 74 | 1017.3 |
| 20260502221702 | 41 | 10 | 0.0 | 1.7 | 0.00 | 0.01 | 0.01 | 73 | 1017.3 |
| 20260502221159 | 41 | 7 | 0.0 | 0.0 | 0.00 | 0.01 | 0.01 | 75 | 1017.3 |
| 20260502220655 | 42 | 0 | 0.0 | 0.9 | 0.00 | 0.01 | 0.01 | 74 | 1017.4 |
| 20260502220151 | 42 | 5 | 0.0 | 0.0 | 0.00 | 0.01 | 0.01 | 72 | 1017.2 |
| 20260502215649 | 42 | 2 | 0.0 | 0.9 | 0.00 | 0.01 | 0.01 | 73 | 1017.1 |
| 20260502215145 | 42 | 1 | 0.0 | 0.9 | 0.00 | 0.01 | 0.01 | 72 | 1017.2 |
| 20260502214643 | 42 | 359 | 0.0 | 0.9 | 0.00 | 0.01 | 0.01 | 71 | 1017.2 |
| 20260502214139 | 42 | 2 | 0.0 | 1.7 | 0.00 | 0.01 | 0.01 | 71 | 1017.3 |
| 20260502213637 | 42 | 358 | 0.0 | 0.9 | 0.00 | 0.01 | 0.01 | 73 | 1017.3 |
| 20260502213134 | 42 | 350 | 0.9 | 0.9 | 0.00 | 0.01 | 0.01 | 74 | 1017.1 |
| 20260502212633 | 42 | 352 | 0.9 | 1.7 | 0.00 | 0.01 | 0.01 | 73 | 1017.2 |
| 20260502212131 | 42 | 10 | 0.0 | 0.0 | 0.00 | 0.01 | 0.01 | 76 | 1017.1 |
| 20260502211626 | 42 | 349 | 0.9 | 1.7 | 0.00 | 0.01 | 0.01 | 75 | 1016.9 |
| 20260502211123 | 42 | 347 | 1.7 | 1.7 | 0.00 | 0.01 | 0.01 | 75 | 1017.1 |
| 20260502210621 | 42 | 4 | 0.0 | 0.9 | 0.00 | 0.01 | 0.01 | 76 | 1016.9 |
| 20260502210118 | 42 | 26 | 0.9 | 0.9 | 0.00 | 0.01 | 0.01 | 75 | 1017.0 |
| 20260502205614 | 43 | 352 | 0.9 | 1.7 | 0.00 | 0.01 | 0.01 | 76 | 1016.8 |
| 20260502205111 | 43 | 358 | 0.0 | 0.9 | 0.00 | 0.01 | 0.01 | 75 | 1016.9 |
| 20260502204608 | 43 | 359 | 0.0 | 1.7 | 0.00 | 0.01 | 0.01 | 74 | 1017.0 |
| 20260502204106 | 43 | 337 | 1.7 | 2.6 | 0.00 | 0.01 | 0.01 | 74 | 1017.1 |
| 20260502203602 | 43 | 1 | 0.0 | 0.9 | 0.00 | 0.01 | 0.01 | 74 | 1017.0 |
| 20260502203100 | 43 | 352 | 0.9 | 1.7 | 0.00 | 0.01 | 0.01 | 75 | 1016.9 |
| 20260502202555 | 44 | 358 | 0.9 | 1.7 | 0.00 | 0.01 | 0.01 | 77 | 1017.2 |
| 20260502202054 | 43 | 27 | 0.9 | 3.5 | 0.00 | 0.01 | 0.01 | 74 | 1017.0 |
| 20260502201549 | 44 | 8 | 0.9 | 2.6 | 0.00 | 0.01 | 0.01 | 76 | 1017.0 |
| 20260502201046 | 43 | 357 | 0.9 | 2.6 | 0.00 | 0.01 | 0.01 | 76 | 1017.4 |
| 20260502200542 | 44 | 29 | 1.7 | 3.5 | 0.00 | 0.01 | 0.01 | 76 | 1017.3 |